sat.trackr.live / text

‹ back to catalog

STARLINK-5612

NORAD 55754 · 2023-028P

PAYLOAD ACTIVE UNKNOWN

§ Identity

Operator
Country
US
Launch date
2023-03-03
Launch site
AFWTR
Launch vehicle
Mass (kg)
RCS (m²)

Purposes: comms

External: N2YO · Heavens-Above · Gunter

§ Orbital elements

Epoch: 2026-09-20T22:00:03.000096Z

Period
95.87 min
Inclination
70.0007°
Eccentricity
0.0003966
Mean motion
15.02067955 rev/d
Perigee alt
557.8 km
Apogee alt
563.3 km
Semi-major
6,938.7 km
B*
5.9858e-3
RAAN
112.1201°
Arg perigee
293.0964°
Mean anomaly
145.9177°
Rev number
557

§ Raw data

STARLINK-56121 55754U 23028P   26263.91670139  .00079544  00000+0  59858-2 0  99912 55754  70.0007 112.1201 0003966 293.0964 145.9177 15.02067955  5578

JSON: /api/v1/satellites/55754 · /tle

For live sub-satellite position, see the globe view (requires WebGL).

§ Visibility from observer

Set your observer location to see the next 7 days of passes ≥ 10°. The values pass through the URL so the page stays shareable.

No JS? Fill the form by hand. The geolocation button needs JavaScript.